DW9439 Weather Reports


Display with metric or nautical units.
time (UTC)temp
F
wind
direction
speed
MPH
gust
MPH
rain 1hr
in
rain 24hr
in
rain mn
in
humidity
%
barometer
mb
20260901063048 69 11 0.0 0.0 0.00 0.00 0.00 67 1018.6
20260901062744 69 11 0.0 0.0 0.00 0.00 0.00 67 1018.6
20260901062025 69 11 0.0 3.0 0.00 0.00 0.00 67 1018.6
20260901061714 69 11 0.0 3.0 0.00 0.00 0.00 66 1018.5
20260901061406 69 11 0.0 3.0 0.00 0.00 0.00 66 1018.4
20260901061054 69 11 1.0 3.0 0.00 0.00 0.00 65 1018.5
20260901060751 70 11 0.0 3.0 0.00 0.00 0.00 65 1018.4
20260901060441 70 11 0.0 2.0 0.00 0.00 0.00 63 1018.4
20260901055711 71 11 0.0 0.0 0.00 0.00 0.00 63 1018.3
20260901055405 71 11 0.0 0.0 0.00 0.00 0.00 62 1018.2
20260901055107 71 11 0.0 0.0 0.00 0.00 0.00 62 1018.3
20260901054808 71 11 0.0 0.0 0.00 0.00 0.00 62 1018.3
20260901054040 72 11 0.0 1.0 0.00 0.00 0.00 61 1018.3
20260901053324 72 11 0.0 0.0 0.00 0.00 0.00 61 1018.1
20260901052551 72 11 0.0 5.0 0.00 0.00 0.00 61 1018.1
20260901052255 72 11 1.0 5.0 0.00 0.00 0.00 61 1018.0
20260901051944 73 11 2.0 5.0 0.00 0.00 0.00 61 1017.9
20260901051637 73 11 2.0 5.0 0.00 0.00 0.00 61 1017.8
20260901051333 72 11 2.0 5.0 0.00 0.00 0.00 61 1017.9
20260901051036 72 11 1.0 5.0 0.00 0.00 0.00 62 1017.7
20260901050722 72 11 0.0 3.0 0.00 0.00 0.00 62 1017.7
20260901045236 73 11 0.0 2.0 0.00 0.00 0.00 61 1017.6
20260901044932 73 11 0.0 4.0 0.00 0.00 0.00 61 1017.6
20260901044632 73 11 1.0 4.0 0.00 0.00 0.00 60 1017.6
20260901044328 73 11 1.0 4.0 0.00 0.00 0.00 60 1017.7
20260901044019 74 11 1.0 4.0 0.00 0.00 0.00 60 1017.7
20260901043711 74 11 1.0 4.0 0.00 0.00 0.00 60 1017.6
20260901043411 74 11 2.0 4.0 0.00 0.00 0.00 59 1017.6
20260901043108 74 11 2.0 4.0 0.00 0.00 0.00 59 1017.7
20260901042343 75 11 2.0 6.0 0.00 0.00 0.00 59 1017.7
20260901042042 75 11 2.0 6.0 0.00 0.00 0.00 59 1017.7
20260901041730 75 11 3.0 10.0 0.00 0.00 0.00 58 1017.6
20260901041433 75 11 4.0 10.0 0.00 0.00 0.00 58 1017.6
20260901041123 75 11 4.0 10.0 0.00 0.00 0.00 58 1017.5
20260901040811 75 11 5.0 10.0 0.00 0.00 0.00 58 1017.5
20260901040458 75 11 6.0 10.0 0.00 0.00 0.00 58 1017.6
20260901040156 76 11 5.0 10.0 0.00 0.00 0.00 58 1017.7
20260901035853 76 10 5.0 10.0 0.00 0.00 0.00 58 1017.8
20260901035550 76 5 4.0 9.0 0.00 0.00 0.00 58 1017.8
20260901035237 76 0 5.0 7.0 0.00 0.00 0.00 59 1017.8
20260901034933 76 0 5.0 10.0 0.00 0.00 0.00 59 1018.0
20260901034631 76 0 5.0 10.0 0.00 0.00 0.00 59 1018.0
20260901034325 76 0 6.0 10.0 0.00 0.00 0.00 59 1018.0
20260901034016 76 0 6.0 14.0 0.00 0.00 0.00 59 1018.1
20260901033237 76 0 8.0 14.0 0.00 0.00 0.00 60 1017.9
20260901032520 75 0 11.0 20.0 0.00 0.00 0.00 62 1017.7
20260901032224 75 5 12.0 20.0 0.00 0.00 0.00 63 1017.7
20260901031919 75 10 13.0 20.0 0.00 0.00 0.00 63 1017.7
20260901031621 75 0 13.0 20.0 0.00 0.00 0.00 64 1017.8
20260901030841 75 351 12.0 20.0 0.00 0.00 0.00 63 1018.0
20260901030529 75 348 12.0 20.0 0.00 0.00 0.00 63 1018.2
20260901030230 75 336 11.0 20.0 0.00 0.00 0.00 62 1018.3
20260901025918 75 338 11.0 20.0 0.00 0.00 0.00 61 1018.5
20260901025606 75 340 11.0 19.0 0.00 0.00 0.00 62 1018.6
20260901025256 74 339 12.0 19.0 0.00 0.00 0.00 63 1018.6
20260901024532 73 337 10.0 20.0 0.00 0.00 0.00 69 1018.6
20260901024223 73 340 11.0 20.0 0.00 0.00 0.00 70 1018.6
20260901023441 74 328 12.0 27.0 0.00 0.00 0.00 69 1018.9
20260901023143 74 324 12.0 27.0 0.00 0.00 0.00 68 1018.9
20260901022000 76 323 14.0 27.0 0.00 0.00 0.00 63 1018.9
20260901021659 76 321 14.0 25.0 0.00 0.00 0.00 63 1018.8
20260901021355 76 319 15.0 28.0 0.00 0.00 0.00 65 1018.9
20260901020207 76 309 15.0 28.0 0.00 0.00 0.00 66 1018.6
20260901015910 76 312 10.0 28.0 0.00 0.00 0.00 64 1018.5
20260901014715 80 98 0.0 0.0 0.00 0.00 0.00 57 1017.6
20260901013950 81 98 0.0 0.0 0.00 0.00 0.00 56 1017.1
20260901013648 82 98 0.0 0.0 0.00 0.00 0.00 55 1016.7
20260901013348 82 98 0.0 0.0 0.00 0.00 0.00 54 1016.5
20260901013050 83 98 0.0 0.0 0.00 0.00 0.00 53 1016.3
20260901012739 83 98 0.0 0.0 0.00 0.00 0.00 51 1016.3
20260901012427 83 98 0.0 0.0 0.00 0.00 0.00 50 1016.3
20260901012115 84 98 0.0 0.0 0.00 0.00 0.00 51 1016.2
20260901011803 84 98 0.0 0.0 0.00 0.00 0.00 51 1016.2
20260901011455 84 98 0.0 0.0 0.00 0.00 0.00 50 1015.9
20260901011142 84 98 0.0 3.0 0.00 0.00 0.00 50 1015.8
20260901010842 85 98 1.0 5.0 0.00 0.00 0.00 50 1015.9
20260901010116 85 98 2.0 5.0 0.00 0.00 0.00 49 1015.7
20260901005817 86 98 2.0 5.0 0.00 0.00 0.00 48 1015.7
20260901005513 86 98 2.0 5.0 0.00 0.00 0.00 48 1015.7
20260901004759 87 98 2.0 4.0 0.00 0.00 0.00 47 1015.7
20260901004501 87 98 1.0 4.0 0.00 0.00 0.00 47 1015.8
20260901004153 87 98 1.0 6.0 0.00 0.00 0.00 47 1015.8
20260901003849 88 98 2.0 6.0 0.00 0.00 0.00 47 1015.8
20260901003115 88 98 3.0 8.0 0.00 0.00 0.00 46 1015.6
20260901002342 88 98 5.0 8.0 0.00 0.00 0.00 46 1015.5
20260901002038 89 98 5.0 8.0 0.00 0.00 0.00 46 1015.5
20260901001733 89 98 4.0 8.0 0.00 0.00 0.00 45 1015.5
20260901001425 89 98 4.0 7.0 0.00 0.00 0.00 45 1015.5
20260901001127 89 98 4.0 8.0 0.00 0.00 0.00 45 1015.5
20260901000831 89 98 3.0 8.0 0.00 0.00 0.00 44 1015.5
20260831235706 90 98 3.0 8.0 0.00 0.00 0.00 42 1015.5
20260831235403 90 98 3.0 8.0 0.00 0.00 0.00 41 1015.5
20260831234637 91 98 2.0 5.0 0.00 0.00 0.00 40 1015.5
20260831233901 91 98 2.0 9.0 0.00 0.00 0.00 38 1015.4
20260831233125 92 98 4.0 10.0 0.00 0.00 0.00 38 1015.3
20260831232829 92 98 4.0 10.0 0.00 0.00 0.00 38 1015.2
20260831232518 93 98 3.0 10.0 0.00 0.00 0.00 39 1015.3
20260831232206 93 98 3.0 10.0 0.00 0.00 0.00 38 1015.2
20260831231901 93 98 4.0 10.0 0.00 0.00 0.00 39 1015.3
20260831231550 93 98 4.0 10.0 0.00 0.00 0.00 38 1015.2
20260831231239 94 96 4.0 10.0 0.00 0.00 0.00 39 1015.2
20260831230524 94 96 5.0 10.0 0.00 0.00 0.00 38 1015.2
20260831225749 94 94 3.0 10.0 0.00 0.00 0.00 38 1015.2
20260831225446 94 85 3.0 8.0 0.00 0.00 0.00 39 1015.3
20260831225139 94 85 4.0 8.0 0.00 0.00 0.00 39 1015.2
20260831224840 94 85 4.0 9.0 0.00 0.00 0.00 39 1015.3
20260831224532 93 84 4.0 9.0 0.00 0.00 0.00 40 1015.3
20260831223803 93 84 4.0 9.0 0.00 0.00 0.00 39 1015.2
20260831223502 94 84 4.0 9.0 0.00 0.00 0.00 39 1015.4
20260831223155 94 84 4.0 9.0 0.00 0.00 0.00 39 1015.4
20260831222847 94 84 4.0 9.0 0.00 0.00 0.00 40 1015.5
20260831222545 93 84 4.0 10.0 0.00 0.00 0.00 40 1015.4
20260831221820 93 83 5.0 10.0 0.00 0.00 0.00 41 1015.5
20260831221517 93 83 5.0 11.0 0.00 0.00 0.00 41 1015.6
20260831220758 94 83 4.0 11.0 0.00 0.00 0.00 39 1015.5
20260831220459 94 82 4.0 11.0 0.00 0.00 0.00 40 1015.5
20260831220148 94 82 5.0 11.0 0.00 0.00 0.00 41 1015.5
20260831215837 94 83 5.0 11.0 0.00 0.00 0.00 40 1015.6
20260831215535 94 76 4.0 9.0 0.00 0.00 0.00 39 1015.6
20260831215234 95 76 4.0 9.0 0.00 0.00 0.00 38 1015.7
20260831214924 95 74 4.0 9.0 0.00 0.00 0.00 38 1015.7
20260831214624 96 72 4.0 9.0 0.00 0.00 0.00 38 1015.8
20260831214326 96 71 4.0 9.0 0.00 0.00 0.00 39 1015.8
20260831214026 96 70 4.0 9.0 0.00 0.00 0.00 38 1015.8
20260831213720 96 70 4.0 9.0 0.00 0.00 0.00 39 1015.8
20260831213410 96 70 2.0 10.0 0.00 0.00 0.00 39 1015.7
20260831213104 96 70 1.0 10.0 0.00 0.00 0.00 39 1015.7
20260831212756 95 70 1.0 10.0 0.00 0.00 0.00 37 1015.9
20260831212452 95 70 3.0 10.0 0.00 0.00 0.00 38 1015.9
20260831211729 95 70 4.0 10.0 0.00 0.00 0.00 37 1016.0
20260831211427 95 67 3.0 10.0 0.00 0.00 0.00 38 1015.9
20260831211114 95 67 3.0 10.0 0.00 0.00 0.00 37 1016.1
20260831210810 95 67 4.0 10.0 0.00 0.00 0.00 36 1016.1
20260831210504 96 67 5.0 10.0 0.00 0.00 0.00 37 1016.2
20260831205752 96 63 4.0 11.0 0.00 0.00 0.00 38 1016.1
20260831205443 95 57 3.0 11.0 0.00 0.00 0.00 38 1016.1
20260831205142 95 57 4.0 11.0 0.00 0.00 0.00 38 1016.3
20260831204842 96 52 3.0 11.0 0.00 0.00 0.00 37 1016.3
20260831204543 96 51 4.0 11.0 0.00 0.00 0.00 37 1016.3
20260831203816 96 45 3.0 10.0 0.00 0.00 0.00 36 1016.4
20260831203509 96 28 2.0 10.0 0.00 0.00 0.00 37 1016.4
20260831203200 96 27 2.0 10.0 0.00 0.00 0.00 38 1016.6
20260831202004 95 27 2.0 8.0 0.00 0.00 0.00 37 1016.9
20260831201651 95 26 2.0 8.0 0.00 0.00 0.00 38 1016.9
20260831201348 94 26 3.0 8.0 0.00 0.00 0.00 39 1017.0
20260831201038 94 26 3.0 8.0 0.00 0.00 0.00 37 1017.0
20260831200728 94 26 3.0 7.0 0.00 0.00 0.00 37 1017.1
20260831200429 94 26 3.0 8.0 0.00 0.00 0.00 38 1017.2
20260831200127 94 26 2.0 8.0 0.00 0.00 0.00 38 1017.2
20260831195813 94 23 2.0 8.0 0.00 0.00 0.00 38 1017.4
20260831195501 94 23 3.0 8.0 0.00 0.00 0.00 39 1017.4
20260831195153 94 23 3.0 8.0 0.00 0.00 0.00 39 1017.4
20260831194849 94 23 3.0 8.0 0.00 0.00 0.00 39 1017.4
20260831194545 94 16 3.0 8.0 0.00 0.00 0.00 40 1017.5
20260831193833 94 11 4.0 10.0 0.00 0.00 0.00 40 1017.4
20260831193537 94 11 3.0 10.0 0.00 0.00 0.00 40 1017.5
20260831193236 94 10 4.0 10.0 0.00 0.00 0.00 40 1017.5
20260831192925 93 10 4.0 10.0 0.00 0.00 0.00 40 1017.6
20260831192613 93 9 3.0 10.0 0.00 0.00 0.00 41 1017.7
20260831191850 93 9 4.0 9.0 0.00 0.00 0.00 41 1017.6
20260831191123 92 9 5.0 12.0 0.00 0.00 0.00 41 1017.6
20260831190357 92 5 5.0 15.0 0.00 0.00 0.00 41 1017.6
20260831190058 92 5 4.0 15.0 0.00 0.00 0.00 42 1017.7
20260831185755 92 5 5.0 15.0 0.00 0.00 0.00 41 1017.7
20260831185443 92 5 6.0 15.0 0.00 0.00 0.00 41 1017.6
20260831185130 92 5 6.0 15.0 0.00 0.00 0.00 42 1017.7
20260831184831 92 5 6.0 15.0 0.00 0.00 0.00 42 1017.7
20260831184051 92 5 5.0 10.0 0.00 0.00 0.00 42 1017.8
20260831183750 91 5 4.0 10.0 0.00 0.00 0.00 42 1017.7
20260831183453 91 5 4.0 9.0 0.00 0.00 0.00 43 1017.7
20260831182718 91 5 5.0 9.0 0.00 0.00 0.00 43 1017.8
20260831182419 91 5 5.0 9.0 0.00 0.00 0.00 43 1017.6
20260831182116 91 5 6.0 14.0 0.00 0.00 0.00 42 1017.8
20260831181813 91 5 6.0 14.0 0.00 0.00 0.00 43 1017.8
20260831181509 91 5 6.0 14.0 0.00 0.00 0.00 44 1017.8
20260831181212 91 5 5.0 14.0 0.00 0.00 0.00 43 1017.9
20260831180445 90 16 5.0 14.0 0.00 0.00 0.00 44 1017.9
20260831180138 90 16 5.0 14.0 0.00 0.00 0.00 44 1018.0
20260831175831 90 18 5.0 9.0 0.00 0.00 0.00 44 1018.1
20260831175113 90 19 4.0 9.0 0.00 0.00 0.00 45 1018.1
20260831174803 90 19 4.0 9.0 0.00 0.00 0.00 45 1018.1
20260831174455 90 19 4.0 9.0 0.00 0.00 0.00 45 1018.2
20260831174155 90 19 5.0 9.0 0.00 0.00 0.00 46 1018.2
20260831173848 89 16 5.0 9.0 0.00 0.00 0.00 47 1018.1
20260831173548 89 16 4.0 11.0 0.00 0.00 0.00 48 1018.1
20260831173241 88 18 3.0 11.0 0.00 0.00 0.00 47 1018.1
20260831172930 88 18 3.0 11.0 0.00 0.00 0.00 48 1018.1
20260831172621 88 18 4.0 11.0 0.00 0.00 0.00 47 1018.2
20260831171851 88 13 5.0 11.0 0.00 0.00 0.00 47 1018.1
20260831171546 88 12 4.0 10.0 0.00 0.00 0.00 48 1018.2
20260831170825 87 11 4.0 10.0 0.00 0.00 0.00 50 1018.1
20260831170528 87 11 4.0 10.0 0.00 0.00 0.00 48 1018.2
20260831170227 87 11 4.0 10.0 0.00 0.00 0.00 48 1018.2
20260831165914 87 11 5.0 10.0 0.00 0.00 0.00 49 1018.2
20260831165612 87 11 5.0 10.0 0.00 0.00 0.00 49 1018.2
20260831165305 87 11 5.0 10.0 0.00 0.00 0.00 49 1018.3
20260831164951 87 15 5.0 7.0 0.00 0.00 0.00 49 1018.4
20260831164641 86 15 5.0 9.0 0.00 0.00 0.00 49 1018.3
20260831164334 86 15 5.0 9.0 0.00 0.00 0.00 50 1018.4
20260831164032 86 15 4.0 9.0 0.00 0.00 0.00 50 1018.4
20260831163721 86 15 4.0 9.0 0.00 0.00 0.00 51 1018.3
20260831163411 86 15 4.0 9.0 0.00 0.00 0.00 51 1018.3
20260831163110 86 15 4.0 9.0 0.00 0.00 0.00 51 1018.4
20260831162757 85 15 4.0 8.0 0.00 0.00 0.00 52 1018.4
20260831162456 85 15 4.0 8.0 0.00 0.00 0.00 53 1018.5
20260831162155 85 15 3.0 8.0 0.00 0.00 0.00 52 1018.5
20260831161847 84 15 3.0 8.0 0.00 0.00 0.00 53 1018.5
20260831161534 84 15 3.0 8.0 0.00 0.00 0.00 53 1018.6
20260831160803 83 15 4.0 8.0 0.00 0.00 0.00 53 1018.5
20260831160457 83 15 3.0 7.0 0.00 0.00 0.00 54 1018.5
20260831160157 83 15 2.0 7.0 0.00 0.00 0.00 56 1018.5
20260831155444 83 15 2.0 6.0 0.00 0.00 0.00 55 1018.5
20260831155132 82 15 3.0 6.0 0.00 0.00 0.00 56 1018.5
20260831154836 82 15 2.0 6.0 0.00 0.00 0.00 56 1018.5
20260831154538 82 15 2.0 7.0 0.00 0.00 0.00 57 1018.5
20260831154232 82 15 1.0 7.0 0.00 0.00 0.00 56 1018.6
20260831153927 81 15 2.0 7.0 0.00 0.00 0.00 57 1018.6
20260831153628 81 15 3.0 7.0 0.00 0.00 0.00 57 1018.5
20260831153327 81 15 4.0 7.0 0.00 0.00 0.00 57 1018.5
20260831153028 81 15 3.0 7.0 0.00 0.00 0.00 57 1018.5
20260831152724 81 15 3.0 6.0 0.00 0.00 0.00 58 1018.5
20260831152427 81 15 3.0 6.0 0.00 0.00 0.00 58 1018.5
20260831152131 80 15 3.0 6.0 0.00 0.00 0.00 58 1018.6
20260831151408 80 15 3.0 6.0 0.00 0.00 0.00 59 1018.7
20260831150655 79 15 2.0 6.0 0.00 0.00 0.00 61 1018.6
20260831150354 79 15 2.0 5.0 0.00 0.00 0.00 61 1018.7
20260831150057 79 15 2.0 7.0 0.00 0.00 0.00 61 1018.7
20260831145747 78 15 3.0 7.0 0.00 0.00 0.00 60 1018.7
20260831145449 79 15 3.0 7.0 0.00 0.00 0.00 61 1018.7
20260831144724 78 15 2.0 7.0 0.00 0.00 0.00 62 1018.8
20260831144000 77 15 2.0 7.0 0.00 0.00 0.00 63 1018.9
20260831143652 77 15 2.0 7.0 0.00 0.00 0.00 64 1018.9
20260831143347 77 15 2.0 7.0 0.00 0.00 0.00 64 1018.8
20260831143048 77 15 1.0 6.0 0.00 0.00 0.00 66 1018.9
20260831142751 76 15 1.0 6.0 0.00 0.00 0.00 65 1018.8
20260831142453 76 15 1.0 6.0 0.00 0.00 0.00 66 1018.8
20260831142150 76 15 1.0 6.0 0.00 0.00 0.00 66 1018.8
20260831141836 75 15 1.0 6.0 0.00 0.00 0.00 67 1018.8
20260831141526 75 15 2.0 6.0 0.00 0.00 0.00 68 1018.9
20260831141216 75 15 2.0 6.0 0.00 0.00 0.00 68 1018.9
20260831140903 74 15 3.0 6.0 0.00 0.00 0.00 69 1018.9
20260831140602 74 15 3.0 7.0 0.00 0.00 0.00 70 1018.9
20260831140303 74 15 3.0 7.0 0.00 0.00 0.00 69 1019.0
20260831135538 73 15 4.0 9.0 0.00 0.00 0.00 72 1018.9
20260831135225 73 15 5.0 9.0 0.00 0.00 0.00 73 1019.0
20260831134925 72 15 5.0 9.0 0.00 0.00 0.00 74 1019.0
20260831134615 72 15 6.0 9.0 0.00 0.00 0.00 76 1019.0
20260831134315 71 15 5.0 9.0 0.00 0.00 0.00 78 1019.0
20260831134013 71 16 5.0 9.0 0.00 0.00 0.00 79 1019.0
20260831133713 70 17 4.0 8.0 0.00 0.00 0.00 81 1019.1
20260831133415 69 17 4.0 6.0 0.00 0.00 0.00 82 1019.1
20260831133108 68 17 4.0 6.0 0.00 0.00 0.00 83 1019.0
20260831132809 67 17 3.0 5.0 0.00 0.00 0.00 85 1019.0
20260831132456 67 17 1.0 4.0 0.00 0.00 0.00 86 1018.8
20260831131726 65 17 0.0 1.0 0.00 0.00 0.00 87 1018.6
20260831131425 65 17 0.0 1.0 0.00 0.00 0.00 87 1018.5
20260831131129 65 17 0.0 1.0 0.00 0.00 0.00 87 1018.4
20260831130828 65 17 0.0 0.0 0.00 0.00 0.00 87 1018.3
20260831130516 64 17 0.0 0.0 0.00 0.00 0.00 87 1018.3
20260831130206 64 17 0.0 0.0 0.00 0.00 0.00 87 1018.3
20260831125907 64 17 0.0 0.0 0.00 0.00 0.00 87 1018.3
20260831125609 64 17 0.0 0.0 0.00 0.00 0.00 87 1018.5
20260831125311 64 17 0.0 1.0 0.00 0.00 0.00 87 1018.7
20260831125013 64 17 1.0 1.0 0.00 0.00 0.00 88 1018.6
20260831124249 63 17 3.0 7.0 0.00 0.00 0.00 88 1018.8
20260831123949 63 17 4.0 7.0 0.00 0.00 0.00 88 1018.9
20260831123225 63 17 5.0 7.0 0.00 0.00 0.00 89 1018.8
20260831122513 62 17 4.0 7.0 0.00 0.00 0.00 89 1018.8
20260831122207 62 17 3.0 5.0 0.00 0.00 0.00 89 1018.8
20260831121906 62 17 2.0 5.0 0.00 0.00 0.00 89 1018.6
20260831121553 62 17 1.0 4.0 0.00 0.00 0.00 89 1018.5
20260831121248 62 17 2.0 5.0 0.00 0.00 0.00 89 1018.4
20260831120946 62 17 2.0 5.0 0.00 0.00 0.00 89 1018.3
20260831120642 62 17 3.0 5.0 0.00 0.00 0.00 89 1018.3
20260831120335 62 17 3.0 5.0 0.00 0.00 0.00 89 1018.3
20260831120034 62 17 3.0 5.0 0.00 0.00 0.00 89 1018.1
20260831115721 62 17 3.0 5.0 0.00 0.00 0.00 89 1018.3
20260831114943 62 17 1.0 4.0 0.00 0.00 0.00 89 1018.2
20260831114227 61 17 1.0 3.0 0.00 0.00 0.00 88 1017.9
20260831113919 61 17 1.0 3.0 0.00 0.00 0.00 88 1017.9
20260831113158 61 17 0.0 1.0 0.00 0.00 0.00 86 1017.8
20260831112850 61 17 0.0 1.0 0.00 0.00 0.00 86 1017.7
20260831112538 61 17 0.0 1.0 0.00 0.00 0.00 86 1017.7
20260831112231 62 17 0.0 1.0 0.00 0.00 0.00 85 1017.6
20260831111920 62 17 0.0 1.0 0.00 0.00 0.00 86 1017.6
20260831111610 62 17 0.0 0.0 0.00 0.00 0.00 86 1017.5
20260831110857 62 17 0.0 0.0 0.00 0.00 0.00 85 1017.4
20260831110544 62 17 0.0 1.0 0.00 0.00 0.00 85 1017.5
20260831110237 62 17 0.0 0.0 0.00 0.00 0.00 85 1017.5
20260831105940 63 17 0.0 1.0 0.00 0.00 0.00 85 1017.5
20260831105627 63 17 0.0 1.0 0.00 0.00 0.00 85 1017.5
20260831105317 63 17 0.0 0.0 0.00 0.00 0.00 85 1017.5
20260831105018 63 17 0.0 1.0 0.00 0.00 0.00 84 1017.5
20260831104713 63 17 0.0 1.0 0.00 0.00 0.00 84 1017.5
20260831103958 63 17 0.0 0.0 0.00 0.00 0.00 83 1017.4
20260831103702 63 17 0.0 1.0 0.00 0.00 0.00 82 1017.3
20260831103358 64 17 0.0 1.0 0.00 0.00 0.00 82 1017.2
20260831102642 64 17 0.0 1.0 0.00 0.00 0.00 82 1017.1
20260831102333 65 17 0.0 0.0 0.00 0.00 0.00 82 1017.1
20260831102028 65 17 0.0 0.0 0.00 0.00 0.00 81 1017.1
20260831101719 65 17 0.0 0.0 0.00 0.00 0.00 81 1017.0
20260831101405 65 17 0.0 0.0 0.00 0.00 0.00 81 1017.0
20260831101100 65 17 0.0 0.0 0.00 0.00 0.00 81 1017.0
20260831100753 65 17 0.0 0.0 0.00 0.00 0.00 81 1017.1
20260831100447 66 17 0.0 0.0 0.00 0.00 0.00 81 1017.0
20260831100145 66 17 0.0 2.0 0.00 0.00 0.00 81 1017.1
20260831095843 66 17 0.0 2.0 0.00 0.00 0.00 81 1016.9
20260831095533 66 17 0.0 2.0 0.00 0.00 0.00 81 1016.9
20260831095222 66 17 0.0 2.0 0.00 0.00 0.00 80 1016.8
20260831094920 66 17 0.0 4.0 0.00 0.00 0.00 80 1016.8
20260831094618 66 17 0.0 4.0 0.00 0.00 0.00 80 1016.7
20260831094308 66 17 1.0 4.0 0.00 0.00 0.00 79 1016.9
20260831093549 67 17 1.0 4.0 0.00 0.00 0.00 79 1016.7
20260831093241 67 17 0.0 4.0 0.00 0.00 0.00 79 1016.6
20260831092941 67 17 0.0 3.0 0.00 0.00 0.00 79 1016.6
20260831091757 68 17 2.0 4.0 0.00 0.00 0.00 79 1016.6
20260831091453 68 17 2.0 5.0 0.00 0.00 0.00 78 1016.6
20260831091154 68 17 2.0 5.0 0.00 0.00 0.00 78 1016.7
20260831090841 68 17 2.0 5.0 0.00 0.00 0.00 77 1017.0
20260831090535 68 17 2.0 5.0 0.00 0.00 0.00 77 1017.0
20260831085816 69 17 3.0 6.0 0.00 0.00 0.00 77 1017.2
20260831085509 69 17 3.0 7.0 0.00 0.00 0.00 76 1017.3
20260831085157 69 17 4.0 7.0 0.00 0.00 0.00 76 1017.3
20260831084420 69 17 4.0 8.0 0.00 0.00 0.00 75 1017.3
20260831084121 69 17 4.0 8.0 0.00 0.00 0.00 75 1017.6
20260831083809 69 17 5.0 8.0 0.00 0.00 0.00 75 1017.7
20260831083455 70 17 5.0 11.0 0.00 0.00 0.00 74 1017.6
20260831082732 70 17 6.0 11.0 0.00 0.00 0.00 73 1017.7
20260831082433 70 17 7.0 11.0 0.00 0.00 0.00 73 1017.6
20260831082127 70 17 7.0 11.0 0.00 0.00 0.00 73 1017.8
20260831081829 71 15 7.0 11.0 0.00 0.00 0.00 72 1017.7
20260831081519 71 20 6.0 11.0 0.00 0.00 0.00 72 1017.9
20260831081223 71 21 7.0 14.0 0.00 0.00 0.00 71 1017.9
20260831080924 71 22 8.0 14.0 0.00 0.00 0.00 71 1018.2
20260831080624 71 21 9.0 14.0 0.00 0.00 0.00 72 1018.2
20260831080325 71 15 9.0 17.0 0.00 0.00 0.00 72 1018.3
20260831080014 71 17 8.0 17.0 0.00 0.00 0.00 71 1018.3
20260831075712 71 18 9.0 17.0 0.00 0.00 0.00 71 1018.3
20260831075414 71 20 10.0 17.0 0.00 0.00 0.00 71 1018.3
20260831075108 71 17 10.0 17.0 0.00 0.00 0.00 70 1018.4
20260831074756 71 17 10.0 17.0 0.00 0.00 0.00 70 1018.1
20260831074037 72 40 9.0 15.0 0.00 0.00 0.00 68 1017.8
20260831073729 72 37 9.0 23.0 0.00 0.00 0.00 68 1017.6
20260831073427 72 38 10.0 23.0 0.00 0.00 0.00 68 1017.6
20260831073118 72 38 12.0 23.0 0.00 0.00 0.00 68 1017.5
20260831072356 72 38 14.0 23.0 0.00 0.00 0.00 68 1017.3
20260831072049 72 21 13.0 23.0 0.00 0.00 0.00 69 1017.3
20260831071319 72 17 11.0 19.0 0.00 0.00 0.00 69 1017.5
20260831071020 72 19 10.0 19.0 0.00 0.00 0.00 69 1017.5
20260831070708 72 32 9.0 17.0 0.00 0.00 0.00 70 1017.5
20260831070403 72 26 9.0 17.0 0.00 0.00 0.00 70 1017.5
20260831065648 72 40 12.0 18.0 0.00 0.00 0.00 70 1017.8
20260831065345 72 22 12.0 18.0 0.00 0.00 0.00 70 1017.9
20260831065034 72 13 12.0 27.0 0.00 0.00 0.00 70 1018.0
20260831064735 72 9 11.0 27.0 0.00 0.00 0.00 70 1018.0
20260831064006 72 341 13.0 27.0 0.00 0.00 0.00 70 1018.2
20260831063709 72 327 15.0 27.0 0.00 0.00 0.00 70 1018.3
20260831063410 73 342 15.0 27.0 0.00 0.00 0.00 70 1018.4